Temp
-8 -9 -8 -8 -8 -8 -8 -8 -8 -8 -8 -8 -7 -7 -7 -7 -6 -6 -6 -6 -6 -6 -6 -7 -7 -7 -7 -7 -7 -6 -6 -6 -6 -6 -6 -6 -6 -6 -6 -6 -6 -6 -6 -6
-8 -8 -8 -8 -8 -8 -8 -8 -8 -7 -7 -7 -7 -7 -7 -6 -6 -6 -6 -6 -6 -6 -6 -6 -6 -6 -6 -6 -6 -6 -6 -6 -6 -6 -6 -6 -6 -6 -6 -6 -6 -6 -6 -6
-8 -8 -8 -8 -8 -8 -8 -8 -8 -7 -7 -7 -7 -6 -6 -6 -6 -5 -6 -6 -6 -6 -6 -6 -6 -6 -6 -6 -6 -6 -6 -6 -6 -6 -6 -6 -6 -6 -6 -6 -6 -6 -6 -6
-8 -8 -8 -8 -8 -8 -8 -7 -7 -7 -7 -6 -7 -6 -6 -5 -5 -5 -5 -6 -6 -6 -6 -5 -5 -6 -6 -5 -5 -6 -6 -6 -6 -6 -6 -6 -6 -6 -6 -6 -6 -6 -6 -6
-8 -8 -8 -8 -8 -7 -7 -7 -7 -7 -7 -6 -6 -5 -5 -5 -5 -5 -5 -6 -6 -6 -5 -5 -5 -5 -5 -5 -5 -6 -6 -6 -6 -6 -6 -6 -6 -6 -6 -6 -6 -6 -6 -6
-8 -8 -8 -8 -8 -8 -8 -8 -7 -7 -6 -6 -6 -5 -5 -5 -5 -5 -5 -5 -6 -5 -5 -5 -5 -5 -5 -5 -5 -5 -5 -6 -6 -6 -6 -6 -6 -6 -6 -6 -6 -6 -6 -6
-8 -8 -8 -8 -8 -8 -8 -8 -8 -7 -6 -6 -6 -5 -5 -5 -5 -5 -5 -5 -5 -5 -5 -5 -5 -5 -5 -5 -5 -5 -5 -5 -5 -6 -6 -6 -6 -6 -6 -6 -6 -6 -5 -5
-8 -8 -8 -8 -8 -7 -8 -8 -8 -7 -7 -6 -6 -5 -5 -5 -5 -5 -5 -5 -5 -5 -5 -5 -5 -5 -5 -5 -5 -5 -5 -5 -5 -6 -6 -6 -6 -6 -6 -6 -6 -6 -6 -6
-8 -8 -8 -8 -8 -8 -7 -8 -8 -7 -7 -6 -5 -5 -5 -5 -5 -5 -5 -5 -5 -5 -5 -5 -5 -5 -5 -5 -5 -5 -5 -5 -5 -6 -6 -6 -6 -6 -6 -6 -6 -6 -6 -6
-9 -8 -8 -8 -8 -8 -8 -8 -8 -7 -7 -6 -5 -5 -5 -5 -5 -5 -5 -5 -5 -5 -5 -5 -5 -5 -5 -5 -5 -5 -5 -5 -5 -5 -6 -6 -6 -6 -6 -6 -6 -6 -6 -6
-9 -9 -9 -8 -8 -8 -8 -7 -7 -8 -7 -6 -5 -5 -5 -5 -5 -5 -5 -5 -5 -5 -5 -5 -5 -5 -5 -5 -5 -5 -5 -5 -5 -5 -6 -6 -6 -6 -6 -6 -6 -6 -6 -6
-9 -9 -9 -9 -9 -8 -8 -8 -7 -7 -7 -7 -6 -5 -5 -5 -5 -5 -5 -5 -5 -5 -5 -5 -5 -5 -5 -5 -5 -5 -5 -5 -5 -6 -6 -6 -6 -6 -6 -6 -6 -6 -6 -6
-10 -9 -9 -9 -9 -9 -8 -8 -8 -8 -8 -6 -6 -4 -5 -5 -5 -5 -5 -5 -5 -5 -5 -5 -5 -5 -6 -6 -6 -6 -6 -6 -6 -6 -6 -6 -6 -6 -6 -6 -7 -7 -6 -7
-9 -9 -9 -9 -9 -9 -9 -8 -8 -8 -7 -6 -5 -5 -6 -6 -6 -6 -6 -6 -5 -6 -6 -6 -5 -6 -6 -6 -6 -6 -6 -6 -6 -6 -6 -6 -7 -6 -7 -7 -7 -7 -7 -7
-9 -8 -9 -9 -9 -9 -9 -9 -8 -7 -7 -7 -6 -5 -6 -6 -6 -6 -6 -6 -6 -6 -6 -6 -6 -6 -6 -6 -6 -6 -6 -6 -6 -6 -6 -7 -7 -7 -7 -7 -7 -7 -7 -7
-9 -8 -8 -9 -9 -9 -9 -8 -8 -7 -7 -6 -6 -5 -6 -7 -7 -6 -7 -6 -6 -6 -6 -6 -6 -6 -6 -6 -6 -6 -6 -7 -6 -6 -7 -7 -7 -7 -7 -7 -7 -7 -7 -7
-9 -8 -9 -8 -9 -10 -8 -8 -8 -7 -7 -7 -7 -6 -7 -7 -7 -7 -7 -7 -6 -6 -6 -6 -6 -6 -6 -6 -6 -6 -7 -6 -6 -6 -7 -7 -7 -7 -8 -8 -8 -8 -8 -8
-9 -9 -9 -8 -9 -8 -7 -8 -8 -8 -8 -8 -7 -7 -7 -7 -7 -7 -7 -6 -6 -6 -6 -6 -6 -6 -6 -6 -6 -6 -6 -6 -6 -6 -7 -7 -7 -8 -8 -8 -8 -8 -8 -8
-10 -10 -10 -9 -9 -8 -7 -7 -8 -8 -8 -8 -8 -8 -8 -8 -7 -7 -7 -7 -6 -6 -6 -6 -6 -6 -6 -6 -7 -7 -6 -6 -6 -7 -7 -8 -8 -8 -8 -8 -8 -8 -8 -9
-11 -11 -11 -10 -9 -8 -7 -8 -9 -8 -7 -10 -10 -9 -9 -9 -7 -7 -8 -7 -6 -6 -6 -7 -7 -6 -6 -7 -7 -7 -7 -7 -7 -7 -8 -8 -8 -8 -8 -8 -8 -8 -9 -9
-11 -11 -11 -10 -10 -9 -8 -8 -8 -9 -9 -9 -10 -10 -10 -10 -8 -7 -8 -7 -7 -7 -7 -7 -7 -7 -6 -7 -7 -7 -7 -7 -8 -8 -8 -8 -8 -8 -8 -8 -8 -9 -9 -9
-12 -11 -11 -12 -11 -9 -9 -9 -9 -9 -11 -11 -11 -11 -11 -10 -9 -8 -8 -8 -7 -7 -7 -7 -7 -7 -7 -6 -7 -7 -7 -8 -8 -8 -8 -8 -9 -9 -8 -9 -9 -9 -9 -10
-16 -15 -13 -13 -11 -11 -10 -10 -10 -10 -11 -12 -12 -12 -12 -11 -10 -10 -9 -8 -8 -8 -8 -7 -8 -8 -7 -7 -7 -7 -8 -8 -8 -8 -8 -8 -9 -9 -9 -9 -9 -10 -10 -10
-19 -17 -17 -14 -11 -11 -11 -11 -11 -10 -10 -10 -11 -12 -12 -11 -11 -11 -11 -10 -9 -9 -9 -8 -8 -8 -8 -8 -8 -8 -8 -8 -8 -8 -9 -9 -9 -9 -9 -9 -10 -10 -10 -10
-20 -20 -19 -17 -12 -11 -11 -11 -12 -11 -9 -9 -9 -10 -11 -11 -10 -11 -10 -9 -10 -10 -9 -9 -9 -9 -9 -9 -9 -9 -9 -9 -9 -9 -9 -9 -9 -9 -9 -10 -10 -10 -10 -10
-22 -21 -21 -20 -17 -14 -11 -13 -13 -11 -11 -10 -10 -10 -10 -10 -11 -11 -10 -10 -10 -9 -10 -10 -10 -10 -10 -9 -9 -9 -9 -9 -9 -9 -10 -10 -10 -10 -10 -10 -10 -11 -11 -11
Height
5867 5867 5867 5867 5868 5869 5870 5872 5873 5874 5875 5877 5878 5880 5882 5884 5887 5890 5893 5895 5898 5900 5901 5902 5903 5904 5904 5904 5905 5905 5905 5906 5906 5907 5907 5908 5908 5908 5907 5907 5906 5905 5904 5902
5868 5867 5867 5868 5869 5870 5871 5873 5873 5874 5875 5876 5878 5879 5882 5884 5886 5889 5892 5894 5897 5899 5899 5900 5902 5904 5904 5904 5904 5905 5905 5906 5907 5907 5908 5908 5908 5908 5907 5907 5906 5905 5904 5902
5865 5867 5867 5867 5868 5870 5871 5872 5872 5873 5874 5875 5876 5878 5881 5883 5885 5889 5891 5894 5896 5897 5898 5900 5902 5903 5904 5904 5905 5906 5906 5907 5908 5908 5908 5908 5908 5908 5907 5907 5906 5905 5903 5900
5863 5864 5864 5866 5866 5868 5868 5869 5870 5871 5872 5873 5875 5877 5879 5882 5885 5888 5891 5893 5894 5895 5897 5899 5901 5903 5904 5905 5906 5907 5907 5908 5908 5908 5908 5908 5907 5907 5907 5907 5906 5904 5901 5898
5859 5860 5861 5862 5863 5865 5866 5866 5868 5868 5870 5871 5873 5875 5878 5880 5884 5887 5889 5891 5892 5894 5895 5897 5899 5902 5903 5904 5905 5906 5907 5907 5907 5907 5907 5907 5907 5907 5906 5905 5903 5901 5899 5897
5854 5856 5857 5858 5859 5861 5862 5863 5863 5865 5866 5869 5870 5873 5876 5879 5882 5884 5887 5889 5890 5892 5893 5895 5897 5900 5901 5903 5904 5905 5905 5906 5906 5907 5906 5906 5906 5905 5904 5903 5902 5900 5898 5895
5849 5851 5852 5853 5855 5856 5857 5858 5859 5861 5863 5866 5867 5871 5874 5877 5880 5882 5884 5885 5887 5889 5891 5893 5895 5897 5899 5900 5902 5903 5904 5904 5905 5905 5905 5904 5904 5903 5902 5900 5899 5896 5894 5891
5845 5847 5847 5849 5850 5851 5852 5854 5855 5856 5858 5861 5863 5868 5872 5874 5876 5879 5881 5882 5885 5887 5888 5890 5892 5894 5896 5897 5899 5900 5901 5902 5902 5902 5902 5901 5900 5899 5898 5897 5895 5892 5890 5887
5839 5841 5842 5843 5845 5847 5848 5849 5850 5851 5853 5855 5859 5865 5868 5870 5873 5875 5877 5880 5882 5884 5885 5886 5888 5890 5892 5893 5895 5896 5898 5898 5899 5899 5898 5898 5897 5896 5894 5892 5890 5888 5885 5883
5835 5835 5837 5838 5839 5842 5843 5844 5846 5846 5848 5849 5854 5859 5863 5865 5867 5869 5872 5875 5877 5879 5881 5883 5884 5886 5887 5889 5890 5891 5892 5893 5894 5894 5893 5893 5892 5890 5889 5887 5885 5882 5880 5877
5828 5830 5833 5832 5834 5834 5837 5838 5840 5841 5842 5843 5848 5854 5857 5859 5862 5865 5867 5869 5871 5873 5875 5877 5879 5880 5882 5884 5885 5885 5886 5887 5888 5888 5888 5887 5886 5885 5883 5881 5879 5877 5874 5871
5822 5820 5825 5826 5826 5827 5829 5831 5832 5833 5837 5837 5840 5849 5850 5853 5856 5859 5861 5863 5864 5866 5868 5870 5873 5874 5876 5878 5879 5879 5880 5881 5881 5882 5882 5881 5880 5878 5877 5875 5872 5870 5867 5864
5816 5814 5815 5819 5820 5821 5821 5824 5824 5825 5827 5829 5832 5843 5842 5846 5849 5852 5854 5856 5858 5860 5861 5864 5866 5868 5869 5871 5872 5873 5874 5874 5875 5875 5875 5874 5873 5872 5870 5868 5866 5863 5860 5857
5804 5804 5807 5811 5811 5811 5811 5814 5815 5816 5819 5823 5825 5833 5837 5839 5840 5843 5845 5848 5850 5852 5854 5855 5858 5861 5862 5863 5865 5866 5867 5867 5868 5868 5868 5867 5866 5865 5863 5861 5858 5856 5853 5849
5793 5793 5795 5798 5800 5798 5800 5804 5806 5808 5811 5812 5820 5822 5830 5830 5831 5832 5835 5838 5841 5844 5846 5848 5850 5852 5853 5855 5856 5858 5858 5859 5859 5860 5861 5859 5858 5857 5855 5852 5850 5848 5845 5841
5780 5782 5781 5783 5787 5788 5787 5793 5798 5800 5802 5804 5805 5813 5821 5823 5820 5823 5826 5828 5831 5834 5836 5838 5840 5841 5844 5845 5846 5847 5848 5850 5849 5851 5852 5850 5849 5848 5846 5844 5841 5839 5835 5832
5770 5771 5771 5770 5774 5776 5776 5785 5786 5788 5791 5793 5791 5807 5806 5809 5809 5810 5813 5815 5818 5821 5823 5826 5829 5832 5833 5834 5836 5837 5838 5838 5839 5840 5840 5841 5840 5838 5836 5833 5831 5828 5825 5821
5755 5758 5759 5757 5760 5760 5771 5771 5774 5775 5778 5779 5779 5787 5793 5796 5797 5798 5801 5805 5807 5809 5812 5817 5820 5822 5823 5824 5825 5826 5826 5827 5828 5828 5829 5830 5829 5827 5825 5822 5820 5817 5813 5810
5736 5740 5739 5742 5743 5751 5755 5758 5762 5762 5767 5766 5767 5773 5779 5779 5781 5790 5790 5789 5792 5796 5801 5804 5807 5810 5812 5813 5814 5814 5816 5817 5817 5818 5819 5819 5816 5813 5812 5810 5807 5804 5801 5798
5718 5719 5718 5724 5728 5731 5742 5745 5749 5750 5752 5759 5755 5757 5761 5764 5771 5774 5773 5775 5780 5785 5789 5792 5795 5798 5800 5801 5801 5803 5804 5804 5805 5805 5807 5805 5802 5801 5799 5797 5794 5791 5789 5785
5694 5694 5696 5704 5703 5714 5726 5731 5731 5739 5745 5744 5745 5745 5746 5750 5756 5755 5761 5763 5767 5770 5773 5777 5780 5783 5785 5787 5788 5790 5791 5792 5793 5792 5792 5791 5790 5788 5787 5783 5781 5779 5776 5772
5668 5671 5677 5684 5683 5690 5706 5714 5714 5721 5721 5726 5727 5730 5732 5736 5741 5742 5745 5749 5753 5755 5758 5762 5766 5768 5769 5772 5774 5776 5777 5778 5776 5776 5776 5776 5776 5775 5773 5771 5768 5766 5763 5759
5635 5648 5652 5656 5668 5677 5680 5691 5691 5693 5697 5704 5707 5713 5716 5721 5725 5728 5730 5734 5736 5740 5743 5747 5750 5752 5753 5756 5759 5761 5761 5761 5762 5762 5763 5763 5762 5761 5759 5756 5754 5751 5748 5743
5609 5617 5620 5626 5646 5649 5655 5659 5661 5668 5674 5682 5689 5692 5698 5703 5708 5712 5715 5719 5723 5725 5728 5732 5735 5737 5738 5740 5742 5745 5746 5747 5748 5749 5749 5749 5748 5746 5744 5742 5739 5737 5733 5729
5589 5592 5594 5594 5620 5624 5633 5637 5637 5645 5652 5662 5672 5677 5683 5687 5693 5695 5698 5703 5706 5709 5713 5715 5720 5722 5724 5725 5727 5729 5730 5731 5732 5733 5733 5733 5733 5731 5729 5727 5725 5722 5719 5715
5574 5575 5570 5573 5595 5597 5610 5613 5614 5621 5632 5640 5646 5653 5660 5667 5674 5679 5683 5685 5687 5690 5694 5698 5701 5703 5705 5708 5712 5712 5713 5714 5715 5715 5715 5715 5714 5714 5713 5711 5710 5707 5703 5699
Wind_Speed
2 4 5 8 10 10 11 10 11 12 13 15 17 18 21 21 19 17 16 14 15 15 14 14 13 12 11 11 10 10 11 10 12 15 18 17 15 15 16 16 17 18 19 20
4 4 5 6 7 7 7 9 9 11 12 14 15 17 19 19 18 17 15 15 16 15 16 14 13 12 12 12 12 12 14 16 19 18 16 16 16 15 14 15 16 16 17 19
9 8 8 9 9 9 9 10 11 11 11 12 15 17 17 19 16 14 15 16 15 17 18 16 15 15 15 15 16 16 17 18 15 14 15 14 12 12 13 12 13 14 17 19
14 12 14 13 13 13 13 14 13 13 13 13 15 16 17 15 15 14 16 16 17 18 19 18 17 16 15 14 14 14 14 13 12 10 9 8 8 8 8 9 10 14 17 19
17 18 17 17 17 16 17 16 15 14 14 14 14 16 15 13 12 15 16 17 19 20 19 19 18 17 14 13 11 10 10 9 7 6 5 4 4 5 6 9 12 14 16 18
18 19 20 20 19 18 18 16 16 15 16 15 16 14 12 13 16 18 18 18 20 20 20 20 18 15 14 12 10 9 8 6 5 3 2 1 3 6 8 10 12 14 16 18
19 16 19 21 20 20 20 19 18 16 17 16 17 13 14 16 16 20 19 20 21 21 20 18 16 16 15 13 12 10 9 8 7 6 6 6 8 9 12 13 15 16 18 19
21 20 18 22 23 22 22 22 21 19 18 18 17 14 15 16 19 20 22 20 22 21 20 18 18 18 16 14 13 13 13 12 12 12 12 13 14 15 17 18 19 19 19 21
24 23 21 21 23 24 24 24 25 23 22 21 20 18 16 17 18 19 20 20 20 22 21 20 19 19 17 15 15 15 15 16 16 17 18 18 19 20 21 22 23 23 22 23
27 26 24 22 23 25 26 27 27 26 26 23 22 21 19 20 21 21 22 20 23 24 23 21 20 21 19 18 17 17 17 17 18 19 20 21 23 24 24 25 25 25 25 25
28 30 25 25 22 27 29 29 30 29 29 27 24 22 21 22 22 22 22 25 25 25 25 24 24 23 21 20 19 20 20 20 21 22 23 24 25 26 26 26 26 25 25 27
30 33 30 28 27 28 32 31 33 33 32 31 30 25 25 25 24 24 26 25 25 25 26 26 25 23 22 23 23 22 23 23 24 24 24 25 25 26 26 26 26 25 27 29
33 35 33 33 31 29 32 34 36 37 36 35 35 27 29 27 26 26 26 26 26 27 29 28 25 22 23 23 22 22 22 23 23 24 24 24 25 25 26 26 26 27 29 31
40 40 37 33 36 36 36 36 39 41 37 37 36 30 31 30 30 30 29 28 29 30 31 32 28 25 24 23 21 21 21 22 22 22 24 24 26 26 27 27 28 30 31 33
45 45 44 39 37 42 41 38 41 43 41 40 37 37 28 37 37 36 34 33 31 30 32 30 28 28 28 27 25 25 25 25 24 24 25 27 28 29 30 31 32 33 34 36
52 49 49 48 44 43 45 41 41 43 43 41 42 39 32 34 41 42 38 37 35 34 34 34 34 34 34 32 32 32 31 31 32 30 30 31 32 33 34 35 36 36 38 40
58 55 54 53 50 48 45 36 39 43 43 44 46 34 34 39 43 44 44 44 41 41 41 40 38 38 38 38 37 37 36 36 36 35 35 34 35 36 38 40 41 41 42 44
66 62 61 60 58 56 44 43 40 42 43 47 49 44 41 41 44 49 49 46 45 46 44 41 40 40 40 40 40 40 40 39 39 39 37 36 37 40 42 45 44 45 46 48
69 69 69 66 66 60 52 47 42 43 41 43 46 42 41 45 48 46 50 53 51 49 46 44 42 42 42 42 43 43 42 40 40 40 38 38 41 44 46 47 48 49 49 50
77 75 75 74 71 69 61 58 51 47 41 38 40 40 40 41 47 49 49 53 53 50 49 46 45 43 44 44 44 43 42 43 42 43 40 41 46 48 49 50 52 51 51 54
83 82 82 79 78 75 69 66 65 57 51 43 40 38 37 37 43 52 48 52 53 52 50 48 47 46 46 46 45 45 45 45 45 45 45 47 49 51 52 53 53 52 54 55
86 85 85 83 83 81 76 71 73 65 60 56 54 49 44 40 36 46 48 49 52 53 53 52 50 50 50 49 48 48 48 48 49 50 50 50 51 52 53 53 53 54 56 57
87 84 85 87 88 84 80 74 75 74 71 64 63 57 50 46 44 45 42 48 49 51 52 56 55 54 54 54 54 52 51 53 53 53 51 49 50 51 51 53 54 56 58 60
84 86 91 94 90 90 89 86 82 80 79 73 68 55 46 58 57 54 51 50 47 46 47 52 54 54 54 55 54 53 52 52 51 50 49 49 51 53 54 55 55 58 60 62
75 69 67 84 92 97 91 92 92 88 84 81 76 74 67 62 58 62 58 58 54 53 53 53 51 50 50 52 52 52 51 51 51 51 52 53 54 55 56 57 59 60 62 65
83 85 86 89 86 90 96 94 91 91 88 88 86 82 79 75 70 63 60 59 57 58 60 60 62 61 58 58 59 59 57 56 56 56 56 55 56 56 58 59 61 63 64 65
Wind_Direction
100 124 140 142 143 147 142 153 156 166 170 174 177 177 179 175 172 170 171 178 189 193 190 187 173 167 162 152 142 133 127 122 116 111 106 103 95 83 72 60 53 49 47 40
222 200 188 181 185 180 178 183 192 192 190 188 186 185 184 179 180 177 180 193 198 194 192 183 169 159 150 139 130 125 123 122 117 114 107 104 94 79 68 62 58 47 40 33
247 231 231 223 222 223 222 222 216 217 206 201 195 191 187 189 183 186 195 205 204 196 190 180 168 152 141 131 127 126 126 125 118 110 106 103 80 73 60 56 40 32 24 21
249 247 248 240 239 237 238 238 232 230 220 208 205 195 193 191 195 205 213 210 207 204 193 184 178 168 158 149 142 139 137 132 126 115 101 83 69 55 41 29 16 11 13 12
247 246 246 253 249 243 244 242 238 228 220 214 206 201 202 199 213 219 219 214 209 208 200 193 187 185 179 175 168 158 150 143 132 116 94 83 57 35 10 0 360 1 1 2
256 248 250 250 255 253 249 246 241 230 219 208 210 202 221 218 218 225 224 217 212 210 209 200 196 195 195 189 188 188 178 171 174 185 225 315 338 339 336 338 338 344 347 349
262 257 248 251 251 253 250 251 244 233 222 211 216 205 221 229 227 228 221 218 214 213 216 209 205 208 209 205 205 210 211 213 224 241 263 282 300 312 316 323 325 330 332 334
258 256 251 248 247 248 248 247 246 240 229 219 217 213 217 226 230 231 227 218 223 220 221 218 216 219 220 219 221 230 236 242 249 257 269 281 292 302 307 312 314 315 316 319
262 256 254 252 248 245 246 247 245 245 237 220 219 224 225 226 231 231 228 225 225 228 228 227 222 227 229 233 235 242 251 257 262 269 275 282 290 296 302 306 307 306 307 310
267 262 254 252 253 248 242 243 243 245 242 228 219 220 221 223 231 231 230 226 230 228 232 235 234 234 237 243 248 252 256 261 267 270 276 282 288 293 297 299 302 303 304 305
271 263 259 252 251 251 244 242 245 244 244 236 220 215 216 219 225 230 235 232 227 226 228 230 235 240 246 253 257 257 257 259 264 269 275 281 287 291 293 296 299 300 303 304
275 269 263 261 250 249 250 245 245 247 246 242 232 212 220 221 220 224 233 236 233 231 231 232 234 241 249 253 257 259 261 263 266 271 274 279 284 287 290 295 298 299 302 303
269 272 266 259 257 252 247 248 247 248 248 239 235 214 226 225 223 222 228 236 237 234 232 232 237 239 244 251 255 258 261 263 267 271 275 279 283 287 288 291 293 295 300 303
265 267 268 266 261 253 248 243 246 248 249 247 236 224 222 224 226 223 225 232 239 234 233 234 237 243 247 251 255 260 263 265 267 271 275 279 282 286 288 290 291 294 299 302
260 262 264 262 260 258 249 243 244 247 250 252 241 237 218 228 225 226 225 227 230 237 238 237 239 243 246 249 256 260 262 265 268 272 277 278 281 285 288 289 292 294 297 300
256 256 259 261 258 258 256 245 244 247 249 255 254 235 232 227 233 230 229 229 229 232 236 237 238 239 245 250 252 255 257 262 265 271 275 278 279 282 284 286 289 293 296 298
256 256 256 257 259 259 256 247 247 247 248 254 256 244 243 234 231 233 229 229 230 232 233 236 239 243 246 249 251 255 257 260 267 268 269 274 277 281 283 287 290 292 294 296
257 256 255 257 260 256 257 260 254 250 246 247 253 251 245 237 234 234 236 232 234 236 239 242 246 249 250 251 253 253 258 260 263 265 269 274 276 278 281 284 287 290 291 294
251 253 254 253 255 255 252 257 258 256 244 249 251 252 247 246 236 231 236 237 234 235 237 241 244 247 249 250 252 254 257 261 265 268 269 271 273 275 278 282 285 288 290 293
252 249 249 250 250 251 250 253 255 257 247 250 255 250 247 245 241 235 240 239 237 237 240 242 243 245 247 250 253 256 257 258 261 263 266 265 267 272 277 279 282 286 288 290
246 249 248 249 249 249 247 254 259 254 262 258 252 254 253 247 242 241 241 240 240 242 242 242 243 243 246 250 252 255 257 261 262 262 263 264 267 270 273 277 281 283 285 288
245 245 247 249 247 248 248 246 249 255 259 255 255 254 251 250 245 244 242 241 242 243 244 245 245 246 247 248 251 254 257 257 258 259 261 263 265 269 272 276 278 280 283 286
246 245 246 247 247 247 250 247 250 252 254 258 255 250 248 248 244 242 243 236 236 240 244 245 245 246 248 250 252 253 253 254 257 260 263 266 267 269 271 273 275 278 282 285
241 245 244 241 239 242 243 245 245 247 248 247 251 250 248 246 245 243 244 242 239 238 239 241 244 245 247 249 252 253 255 258 261 263 264 265 267 269 271 274 276 279 281 283
232 227 237 242 238 239 241 244 244 244 244 245 246 248 247 249 247 244 246 237 240 240 242 244 243 245 247 249 252 255 257 259 260 262 264 267 269 271 272 273 275 277 279 282
233 239 239 244 244 241 239 240 243 244 242 245 246 245 245 245 246 244 243 239 241 240 241 244 247 246 245 247 253 256 259 259 261 263 265 266 267 268 270 273 275 277 279 281